This demonstration page uses our WeatherBlox Daily Observations layout. Learn more.

Left ArrowRight Arrow

Hourly Observations for July 7, 2016

Temp ( °F °C ) Dew Point ( °F °C ) Humidity (%) Winds ( mph kmh ) Pressure ( in mb ) Visibility ( mi km ) Precip ( " mm )
12:15 am 00:15 Cloudy 68 19.8 62 16.6 82 82 N 24 39 29.74 1007 10 16 N/A
12:35 am 00:35 Cloudy with Thunderstorms 66 18.9 60 15.5 81 81 NNE 16 26 29.71 1006 10 16 N/A
12:55 am 00:55 Cloudy with Light Rain 66 18.9 60 15.7 82 82 N 16 26 29.71 1006 10 16 N/A
1:15 am 01:15 Partly Cloudy with Light Rain 79 26.2 50 9.9 36 36 NNW 10 17 29.56 1001 10 16 0.01 0.25
1:35 am 01:35 Partly Cloudy with Drizzle 87 30.6 46 7.7 24 24 WSW 25 41 29.56 1001 10 16 0.01 0.25
1:55 am 01:55 Partly Cloudy 72 22.3 57 14 59 59 S 13 20 29.56 1001 10 16 0.01 0.25
2:15 am 02:15 Clear with Nearby Thunderstorms 68 20 59 15.1 74 74 S 14 22 29.62 1003 10 16 N/A
2:35 am 02:35 Clear with Thunderstorms 68 20 60 15.7 76 76 SSW 14 22 29.65 1004 10 16 N/A
2:55 am 02:55 Windy with Storms Likely 68 19.8 61 15.9 78 78 SSW 24 39 29.62 1003 10 16 N/A
3:15 am 03:15 Mostly Cloudy 73 22.5 57 13.9 58 58 S 5 7 29.59 1002 10 16 N/A
3:35 am 03:35 Mostly Cloudy 72 22.2 58 14.5 62 62 SW 12 19 29.68 1005 10 16 N/A
3:55 am 03:55 Cloudy with Light Rain 70 20.9 58 14.7 68 68 SSE 12 19 29.65 1004 10 16 N/A
4:15 am 04:15 Mostly Cloudy with Thunderstorms 68 20 60 15.7 76 76 E 15 24 29.68 1005 10 16 N/A
4:35 am 04:35 Windy with Storms Likely 66 19 61 16.3 84 84 SE 24 39 29.65 1004 10 16 N/A
4:55 am 04:55 Windy with Storms Likely 65 18.1 61 16.2 89 89 SE 20 31 29.65 1004 10 16 N/A
5:15 am 05:15 Partly Cloudy with Nearby Thunderstorms 65 18.6 61 16.1 85 85 SSE 17 28 29.68 1005 10 16 N/A
5:35 am 05:35 Cloudy with Light Rain 66 18.7 61 16 84 84 E 23 37 29.65 1004 10 16 0.01 0.25
5:55 am 05:55 Mostly Cloudy with Nearby Thunderstorms 66 18.8 60 15.8 83 83 SE 12 19 29.68 1005 10 16 0.01 0.25
6:15 am 06:15 Mostly Cloudy with Thunderstorms 66 18.7 60 15.6 82 82 E 12 19 29.65 1004 10 16 N/A
6:35 am 06:35 Partly Cloudy with Nearby Thunderstorms 66 18.7 60 15.5 82 82 E 3 6 29.65 1004 10 16 N/A
6:55 am 06:55 Sunny 65 18.5 60 15.5 83 83 N N/A 29.68 1005 10 16 N/A
7:15 am 07:15 Sunny 64 17.6 60 15.6 88 88 N N/A 29.71 1006 10 16 N/A
7:35 am 07:35 Sunny 64 18 61 16 88 88 N N/A 29.71 1006 10 16 N/A
7:55 am 07:55 Sunny 67 19.7 61 16.1 80 80 S 5 7 29.71 1006 10 16 N/A
8:15 am 08:15 Sunny 69 20.4 62 16.4 78 78 SSE 6 9 29.71 1006 10 16 N/A
8:35 am 08:35 Sunny 70 21 62 16.5 76 76 SSE 7 11 29.68 1005 10 16 N/A
8:55 am 08:55 Sunny 70 21.3 62 16.5 74 74 SSE 8 13 29.71 1006 10 16 N/A
9:15 am 09:15 Sunny 72 22.1 62 16.4 70 70 S 7 11 29.71 1006 10 16 N/A
9:35 am 09:35 Partly Cloudy 72 22 61 16.2 70 70 S 9 15 29.71 1006 10 16 N/A
9:55 am 09:55 Cloudy 72 22.2 62 16.5 70 70 SSW 9 15 29.71 1006 10 16 N/A
10:15 am 10:15 Mostly Cloudy 73 22.7 62 16.7 69 69 S 12 19 29.71 1006 10 16 N/A
10:35 am 10:35 Mostly Cloudy 73 23 62 16.6 67 67 S 10 17 29.71 1006 10 16 N/A
10:55 am 10:55 Partly Cloudy 76 24.4 62 16.6 62 62 S 9 15 29.74 1007 10 16 N/A
11:15 am 11:15 Mostly Cloudy 76 24.5 61 16.2 60 60 S 8 13 29.77 1008 10 16 N/A
11:35 am 11:35 Mostly Cloudy 78 25.3 62 16.8 59 59 WSW 6 9 29.77 1008 10 16 N/A
11:55 am 11:55 Partly Cloudy 77 25.2 62 16.8 60 60 WSW 9 15 29.77 1008 10 16 N/A
12:15 pm 12:15 Partly Cloudy 79 25.9 64 17.5 60 60 W 10 17 29.77 1008 10 16 N/A
12:35 pm 12:35 Partly Cloudy 80 26.5 63 17.1 56 56 W 10 17 29.74 1007 10 16 N/A
12:55 pm 12:55 Sunny 81 27 63 17 54 54 WSW 5 7 29.77 1008 10 16 N/A
1:15 pm 13:15 Sunny 82 27.5 64 17.7 55 55 W 8 13 29.77 1008 10 16 N/A
1:35 pm 13:35 Sunny 82 28 64 17.5 53 53 W 7 11 29.77 1008 10 16 N/A
1:55 pm 13:55 Sunny 83 28.2 64 17.9 54 54 WNW 6 9 29.74 1007 10 16 N/A
2:15 pm 14:15 Sunny 83 28.3 63 17.2 51 51 WNW 5 7 29.74 1007 10 16 N/A
2:35 pm 14:35 Sunny 83 28.5 64 17.9 53 53 WNW 6 9 29.74 1007 10 16 N/A
2:55 pm 14:55 Sunny 84 28.7 64 17.5 51 51 WNW 3 6 29.74 1007 10 16 N/A
3:15 pm 15:15 Sunny 84 28.8 65 18.2 53 53 NNW 6 9 29.77 1008 10 16 N/A
3:35 pm 15:35 Sunny 84 28.8 65 18.5 54 54 NNW 8 13 29.74 1007 10 16 N/A
3:55 pm 15:55 Sunny 84 29 65 18.6 53 53 N 5 7 29.74 1007 10 16 N/A
4:15 pm 16:15 Sunny 84 29 65 18.2 52 52 N 6 9 29.77 1008 10 16 N/A
4:35 pm 16:35 Sunny 85 29.5 58 14.4 40 40 NNW 5 7 29.71 1006 10 16 N/A
4:55 pm 16:55 Sunny 86 29.9 60 15.5 42 42 N N/A 29.71 1006 10 16 N/A
5:15 pm 17:15 Sunny 86 30.1 62 16.9 45 45 N 5 7 29.74 1007 10 16 N/A
5:35 pm 17:35 Sunny 86 30 63 17.1 46 46 N 3 6 29.74 1007 10 16 N/A
5:55 pm 17:55 Sunny 86 29.9 63 17.1 46 46 N N/A 29.74 1007 10 16 N/A
6:15 pm 18:15 Sunny 85 29.5 62 16.4 45 45 N 7 11 29.77 1008 10 16 N/A
6:35 pm 18:35 Sunny 86 30 61 16.3 44 44 NNE 9 15 29.74 1007 10 16 N/A
6:55 pm 18:55 Sunny 85 29.2 60 15.8 44 44 NE 8 13 29.77 1008 10 16 N/A
7:15 pm 19:15 Sunny 83 28.6 62 16.4 48 48 NE 7 11 29.77 1008 10 16 N/A
7:35 pm 19:35 Sunny 81 27.3 63 17.1 54 54 NNE 7 11 29.77 1008 10 16 N/A
7:55 pm 19:55 Sunny 78 25.6 64 17.6 61 61 NE 8 13 29.80 1009 10 16 N/A
8:15 pm 20:15 Sunny 77 25 63 17.1 62 62 NE 8 13 29.83 1010 10 16 N/A
8:35 pm 20:35 Sunny 76 24.4 63 17 63 63 NNE 6 9 29.83 1010 10 16 N/A
8:55 pm 20:55 Partly Cloudy 74 23.6 63 17.3 68 68 N 6 9 29.85 1011 10 16 N/A
9:15 pm 21:15 Partly Cloudy 73 23 64 17.5 71 71 NNE 5 7 29.83 1010 10 16 N/A
9:35 pm 21:35 Partly Cloudy 74 23.1 63 17.2 70 70 NE 8 13 29.83 1010 10 16 N/A
9:55 pm 21:55 Clear 73 22.7 65 18.1 75 75 NE 10 17 29.83 1010 10 16 N/A
10:15 pm 22:15 Clear 72 22.3 65 18.3 78 78 NNE 12 19 29.88 1012 10 16 N/A
10:35 pm 22:35 Clear 72 22 65 18.1 79 79 NNE 12 19 29.88 1012 10 16 N/A
10:55 pm 22:55 Clear 71 21.5 65 18.1 81 81 NNE 7 11 29.88 1012 10 16 N/A
11:15 pm 23:15 Clear 70 21 65 18.1 84 84 NE 8 13 29.88 1012 10 16 N/A
11:35 pm 23:35 Clear 69 20.6 64 18 85 85 NE 7 11 29.88 1012 10 16 N/A
11:55 pm 23:55 Clear 68 20.1 64 18 88 88 NE 6 9 29.88 1012 10 16 N/A

Powered by AerisWeather